Location: ????????
(60.5616°N, 46.8254°E)
Time: 09:19:53
(UTC+00:00)

SL-16 R/B - Pass Details

Date: 18 February 2020
Orbit: 985 x 1007 km, 99.5° (Epoch: 27 March)

Event Time Altitude Azimuth Distance (km) Brightness Sun altitude
Exits shadow 20:07:16 27° 24° (NNE) 1,836 4.2 -39.8°
Drops below altitude 10° 20:11:20 10° 346° (NNW) 2,798 5.6 -40.0°
Sets 20:14:09 0° 336° (NNW) 3,752 6.4 -40.1°
